| time (UTC) | temp F | wind direction | speed knots | gust knots | rain 1hr in | rain 24hr in | rain mn in | humidity % | barometer mb |
| 20260510210042 | 67 | 0 | 0.0 | 3.5 | 0.00 | 0.00 | 0.00 | 66 | 1012.0 |
| 20260510204547 | 68 | 0 | 0.9 | 3.5 | 0.00 | 0.00 | 0.00 | 65 | 1011.8 |
| 20260510203038 | 67 | 248 | 2.6 | 4.3 | 0.00 | 0.00 | 0.00 | 65 | 1011.5 |
| 20260510201543 | 68 | 198 | 4.3 | 6.1 | 0.00 | 0.00 | 0.00 | 63 | 1011.2 |
| 20260510200042 | 68 | 0 | 0.0 | 1.7 | 0.00 | 0.00 | 0.00 | 64 | 1011.1 |
| 20260510194543 | 68 | 156 | 0.9 | 2.6 | 0.00 | 0.00 | 0.00 | 63 | 1011.1 |
| 20260510193038 | 69 | 220 | 3.5 | 8.7 | 0.00 | 0.00 | 0.00 | 63 | 1010.9 |
| 20260510191545 | 69 | 241 | 5.2 | 8.7 | 0.00 | 0.00 | 0.00 | 61 | 1010.8 |
| 20260510190041 | 70 | 220 | 5.2 | 9.6 | 0.00 | 0.00 | 0.00 | 61 | 1010.6 |
| 20260510184536 | 70 | 256 | 6.1 | 9.6 | 0.00 | 0.00 | 0.00 | 59 | 1010.7 |
| 20260510183043 | 71 | 243 | 5.2 | 10.4 | 0.00 | 0.00 | 0.00 | 59 | 1010.4 |
| 20260510181548 | 71 | 223 | 7.8 | 15.6 | 0.00 | 0.00 | 0.00 | 58 | 1010.4 |
| 20260510180042 | 73 | 215 | 6.1 | 19.1 | 0.00 | 0.00 | 0.00 | 56 | 1010.4 |
| 20260510174543 | 73 | 261 | 11.3 | 20.9 | 0.00 | 0.00 | 0.00 | 54 | 1010.4 |
| 20260510173057 | 73 | 243 | 13.9 | 22.6 | 0.00 | 0.00 | 0.00 | 52 | 1010.3 |
| 20260510171536 | 74 | 232 | 9.6 | 16.5 | 0.00 | 0.00 | 0.00 | 53 | 1010.3 |
| 20260510170042 | 74 | 215 | 9.6 | 18.2 | 0.00 | 0.00 | 0.00 | 53 | 1010.1 |
| 20260510164558 | 74 | 213 | 13.9 | 24.3 | 0.00 | 0.00 | 0.00 | 51 | 1010.3 |
| 20260510163043 | 75 | 215 | 13.9 | 21.7 | 0.00 | 0.00 | 0.00 | 52 | 1010.2 |
| 20260510161537 | 75 | 236 | 14.8 | 21.7 | 0.00 | 0.00 | 0.00 | 51 | 1010.4 |
| 20260510160037 | 75 | 223 | 13.0 | 24.3 | 0.00 | 0.00 | 0.00 | 51 | 1010.2 |
| 20260510154537 | 75 | 229 | 18.2 | 28.7 | 0.00 | 0.00 | 0.00 | 50 | 1010.3 |
| 20260510153047 | 76 | 227 | 11.3 | 24.3 | 0.00 | 0.00 | 0.00 | 53 | 1010.4 |
| 20260510151539 | 76 | 229 | 16.5 | 27.8 | 0.00 | 0.00 | 0.00 | 51 | 1010.6 |
| 20260510150041 | 75 | 236 | 14.8 | 26.1 | 0.00 | 0.00 | 0.00 | 51 | 1010.6 |
| 20260510144547 | 76 | 205 | 16.5 | 26.1 | 0.00 | 0.00 | 0.00 | 52 | 1010.8 |
| 20260510143043 | 76 | 227 | 14.8 | 22.6 | 0.00 | 0.00 | 0.00 | 52 | 1010.8 |
| 20260510141542 | 76 | 195 | 11.3 | 20.9 | 0.00 | 0.00 | 0.00 | 53 | 1010.9 |
| 20260510140041 | 77 | 214 | 13.9 | 25.2 | 0.00 | 0.00 | 0.00 | 53 | 1011.1 |
| 20260510134550 | 77 | 217 | 11.3 | 24.3 | 0.00 | 0.00 | 0.00 | 52 | 1011.5 |
| 20260510133040 | 77 | 238 | 14.8 | 23.5 | 0.00 | 0.00 | 0.00 | 51 | 1011.5 |
| 20260510131540 | 73 | 198 | 9.6 | 17.4 | 0.00 | 0.00 | 0.00 | 68 | 1011.8 |
| 20260510130038 | 74 | 190 | 9.6 | 19.1 | 0.00 | 0.00 | 0.00 | 67 | 1012.1 |
| 20260510124539 | 74 | 186 | 8.7 | 15.6 | 0.00 | 0.00 | 0.00 | 68 | 1012.2 |
| 20260510123041 | 72 | 186 | 11.3 | 18.2 | 0.00 | 0.00 | 0.00 | 71 | 1012.5 |
| 20260510121540 | 71 | 205 | 10.4 | 16.5 | 0.00 | 0.00 | 0.00 | 71 | 1012.7 |
| 20260510120038 | 71 | 200 | 12.2 | 18.2 | 0.00 | 0.00 | 0.00 | 72 | 1012.9 |
| 20260510114537 | 71 | 197 | 10.4 | 19.1 | 0.00 | 0.02 | 0.00 | 71 | 1013.0 |
| 20260510113037 | 70 | 202 | 9.6 | 17.4 | 0.00 | 0.02 | 0.00 | 73 | 1013.1 |
| 20260510111538 | 69 | 167 | 11.3 | 17.4 | 0.00 | 0.02 | 0.00 | 73 | 1013.5 |
| 20260510110042 | 70 | 212 | 9.6 | 14.8 | 0.00 | 0.02 | 0.00 | 70 | 1013.6 |
| 20260510104542 | 71 | 182 | 7.0 | 15.6 | 0.00 | 0.11 | 0.00 | 71 | 1013.5 |
| 20260510103044 | 71 | 127 | 5.2 | 8.7 | 0.00 | 0.11 | 0.00 | 69 | 1013.5 |
| 20260510101539 | 70 | 121 | 3.5 | 7.8 | 0.00 | 0.11 | 0.00 | 67 | 1013.6 |
| 20260510100047 | 71 | 75 | 1.7 | 4.3 | 0.00 | 0.11 | 0.00 | 62 | 1013.6 |
| 20260510094547 | 70 | 80 | 0.9 | 4.3 | 0.00 | 0.46 | 0.00 | 66 | 1013.6 |
| 20260510093042 | 69 | 0 | 0.0 | 4.3 | 0.00 | 0.46 | 0.00 | 67 | 1013.9 |
| 20260510091539 | 68 | 74 | 0.9 | 4.3 | 0.00 | 0.46 | 0.00 | 69 | 1013.8 |
| 20260510090041 | 67 | 0 | 0.0 | 3.5 | 0.00 | 0.46 | 0.00 | 71 | 1014.0 |
| 20260510084549 | 65 | 190 | 1.7 | 5.2 | 0.00 | 0.82 | 0.00 | 75 | 1014.3 |
| 20260510083047 | 65 | 142 | 0.9 | 2.6 | 0.00 | 0.82 | 0.00 | 77 | 1014.2 |
| 20260510081542 | 64 | 232 | 0.0 | 3.5 | 0.00 | 0.82 | 0.00 | 79 | 1014.5 |
| 20260510080042 | 63 | 0 | 0.9 | 3.5 | 0.00 | 0.82 | 0.00 | 81 | 1014.4 |
| 20260510074541 | 62 | 314 | 1.7 | 5.2 | 0.00 | 1.12 | 0.00 | 82 | 1014.5 |
| 20260510073045 | 61 | 296 | 2.6 | 6.1 | 0.00 | 1.12 | 0.00 | 85 | 1014.9 |
| 20260510071544 | 60 | 342 | 1.7 | 3.5 | 0.00 | 1.12 | 0.00 | 86 | 1014.5 |
| 20260510070043 | 59 | 299 | 0.0 | 1.7 | 0.00 | 1.12 | 0.00 | 87 | 1014.4 |
| 20260510064602 | 58 | 0 | 0.0 | 2.6 | 0.00 | 1.32 | 0.00 | 88 | 1014.3 |
| 20260510063042 | 57 | 300 | 0.0 | 2.6 | 0.00 | 1.32 | 0.00 | 88 | 1014.3 |
| 20260510061542 | 56 | 269 | 0.9 | 2.6 | 0.00 | 1.32 | 0.00 | 89 | 1014.3 |
| 20260510060046 | 55 | 0 | 0.0 | 1.7 | 0.00 | 1.32 | 0.00 | 88 | 1014.2 |
| 20260510054538 | 55 | 0 | 0.0 | 1.7 | 0.00 | 1.32 | 0.00 | 88 | 1013.9 |
| 20260510053036 | 55 | 0 | 0.0 | 2.6 | 0.00 | 1.32 | 0.00 | 88 | 1014.0 |
| 20260510051541 | 55 | 319 | 1.7 | 4.3 | 0.00 | 1.32 | 0.00 | 88 | 1013.9 |
| 20260510050043 | 55 | 360 | 0.9 | 4.3 | 0.00 | 1.32 | 0.00 | 87 | 1013.8 |
| 20260510044542 | 56 | 322 | 1.7 | 4.3 | 0.00 | 1.32 | 0.00 | 88 | 1013.8 |
| 20260510043046 | 56 | 330 | 1.7 | 3.5 | 0.00 | 1.32 | 0.00 | 88 | 1013.8 |
| 20260510041552 | 56 | 0 | 0.0 | 0.0 | 0.00 | 1.32 | 0.00 | 87 | 1013.6 |
| 20260510040042 | 56 | 0 | 0.0 | 0.0 | 0.00 | 1.32 | 0.00 | 87 | 1013.6 |
| 20260510034535 | 56 | 0 | 0.0 | 0.0 | 0.00 | 1.32 | 0.00 | 87 | 1013.5 |
| 20260510033043 | 57 | 0 | 0.0 | 1.7 | 0.00 | 1.32 | 0.00 | 87 | 1013.4 |
| 20260510031541 | 57 | 253 | 0.9 | 2.6 | 0.00 | 1.32 | 0.00 | 87 | 1013.3 |
| 20260510030041 | 57 | 252 | 1.7 | 2.6 | 0.00 | 1.32 | 0.00 | 87 | 1013.4 |
| 20260510024551 | 56 | 248 | 2.6 | 4.3 | 0.00 | 1.32 | 0.00 | 86 | 1013.4 |
| 20260510023037 | 56 | 247 | 1.7 | 3.5 | 0.00 | 1.32 | 0.00 | 86 | 1013.2 |
| 20260510021542 | 57 | 325 | 1.7 | 3.5 | 0.00 | 1.32 | 0.00 | 86 | 1013.2 |
| 20260510020048 | 57 | 267 | 1.7 | 2.6 | 0.00 | 1.32 | 0.00 | 85 | 1013.0 |
| 20260510014542 | 57 | 0 | 0.0 | 0.0 | 0.00 | 1.32 | 0.00 | 85 | 1012.8 |
| 20260510013043 | 57 | 0 | 0.9 | 2.6 | 0.00 | 1.32 | 0.00 | 85 | 1013.0 |
| 20260510011540 | 57 | 0 | 0.0 | 2.6 | 0.00 | 1.32 | 0.00 | 84 | 1013.0 |
| 20260510010056 | 58 | 0 | 0.0 | 2.6 | 0.00 | 1.32 | 0.00 | 84 | 1013.1 |
| 20260510004536 | 58 | 262 | 0.9 | 2.6 | 0.00 | 1.32 | 0.00 | 84 | 1013.5 |
| 20260510003042 | 59 | 0 | 0.9 | 2.6 | 0.00 | 1.32 | 0.00 | 84 | 1013.5 |
| 20260510001539 | 60 | 185 | 0.9 | 1.7 | 0.00 | 1.32 | 0.00 | 83 | 1013.1 |
| 20260510000043 | 61 | 0 | 0.0 | 0.0 | 0.00 | 1.32 | 0.00 | 84 | 1013.5 |
| 20260509234556 | 61 | 0 | 0.0 | 1.7 | 0.00 | 1.32 | 0.00 | 83 | 1013.7 |
| 20260509233036 | 61 | 186 | 0.0 | 2.6 | 0.00 | 1.32 | 0.00 | 83 | 1013.9 |
| 20260509231543 | 61 | 186 | 0.9 | 1.7 | 0.00 | 1.32 | 0.00 | 82 | 1014.0 |
| 20260509230042 | 61 | 186 | 0.9 | 1.7 | 0.00 | 1.32 | 0.00 | 81 | 1013.9 |
| 20260509224540 | 62 | 0 | 0.0 | 1.7 | 0.00 | 1.32 | 0.00 | 81 | 1014.1 |
| 20260509223041 | 62 | 0 | 0.0 | 0.0 | 0.00 | 1.32 | 0.00 | 81 | 1014.1 |
| 20260509221601 | 62 | 0 | 0.0 | 0.9 | 0.00 | 1.32 | 0.00 | 80 | 1014.0 |
| 20260509220041 | 62 | 0 | 0.9 | 2.6 | 0.00 | 1.32 | 0.00 | 80 | 1013.8 |
| 20260509214539 | 62 | 188 | 0.9 | 1.7 | 0.00 | 1.32 | 1.32 | 79 | 1013.9 |
| 20260509213035 | 62 | 0 | 0.9 | 6.1 | 0.00 | 1.32 | 1.32 | 79 | 1013.7 |
| 20260509211542 | 62 | 227 | 4.3 | 7.8 | 0.00 | 1.32 | 1.32 | 78 | 1013.6 |